Regional Weather Roundup
Issued by NWS Goodland, KS

Home | Current Version | Previous Version | Text Only | Print | Product List | Glossary Off
Versions: 1 2 3 4 5 6 7 8 9 10 11 12 13 14 15 16 17 18 19 20 21 22 23 24 25 26 27 28 29 30 31 32 33 34 35 36 37 38 39 40 41 42 43 44 45 46 47 48 49 50

000
ASUS43 KGLD 300059
RWRGLD

GOODLAND FORECAST AREA HOURLY WEATHER ROUNDUP
NATIONAL WEATHER SERVICE GOODLAND KS
700 PM MDT FRI MAY 29 2015

...OFFICIAL OBSERVATIONS...

CITY           SKY/WX    TMP DP  RH WIND       PRES   REMARKS
GOODLAND KS    PTSUNNY   59  51  75 N17G23    30.17R
HILL CITY KS   MOCLDY    62  57  83 N16G23    30.07F
IMPERIAL NEB   CLOUDY    55  47  74 N22G28    30.20R
MCCOOK NEB     CLOUDY    57  49  74 N22       30.15R
AKRON CO       CLOUDY    51  46  83 N18       30.26R
BURLINGTON CO  PTSUNNY   58  50  75 NE16      30.20R
LIMON CO       PTSUNNY   57  46  66 N16G26    30.25R
$$

...UNOFFICIAL OBSERVATIONS...

CITY           SKY/WX    TMP DP  RH WIND       PRES   REMARKS
COLBY KS       MOSUNNY   61  55  82 N17G23    30.16R
GOVE KS          N/A     64  32  30 MISG        N/A
NORTON KS      CLOUDY    57  50  77 N18G30    30.09R
SHARON SPRINGS   N/A     61  52  71 MISG        N/A
KIT CARSON CO    N/A     63  48  57 MISG        N/A
$$


USA.gov is the U.S. government's official web portal to all federal, state and local government web resources and services.